Regional Weather Roundup
Issued by NWS

Home | Current Version | Previous Version | Graphics & Text | Print | Product List | Glossary Off
Versions: 1 2 3 4 5 6 7 8 9 10 11 12 13 14 15 16 17 18 19 20 21 22 23 24 25 26 27 28 29 30 31 32 33 34 35 36 37 38 39 40 41 42 43 44 45 46 47 48 49 50

000
ASUS43 KMPX 181510
RWRMN
WEATHER ROUNDUP FOR MINNESOTA
NATIONAL WEATHER SERVICE TWIN CITIES/CHANHASSEN MN
1000 AM CDT SAT APR 18 2015


NOTE: "FAIR" INDICATES FEW OR NO CLOUDS BELOW 12,000 FEET WITH NO
SIGNIFICANT WEATHER AND/OR OBSTRUCTIONS TO VISIBILITY. N/A MEANS
CURRENT SKY AND/OR WEATHER CONDITIONS ARE NOT AVAILABLE.

MNZ060>063-068>070-181600-
   Twin Cities Metro

CITY           SKY/WX    TMP DP  RH WIND       PRES   REMARKS
TWIN CITIES    PTSUNNY   60  32  34 E15       30.08F
ST PAUL        MOSUNNY   59  33  37 E12       30.09F
CRYSTAL        MOSUNNY   59  31  34 E12G20    30.07F
BLAINE         MOSUNNY   57  32  38 E12       30.09F
LAKEVILLE      PTSUNNY   55  34  44 E13       30.07F
EDEN PRAIRIE   MOSUNNY   59  32  36 E16       30.06F
SOUTH ST PAUL  MOSUNNY   60  30  32 E9        30.09S
LAKE ELMO      FAIR      59  34  38 E13G18    30.10F
$$
MNZ001>005-007-008-013>017-022>024-027-028-181600-
   Northwest Minnesota

CITY           SKY/WX    TMP DP  RH WIND       PRES   REMARKS
BEMIDJI        SUNNY     46  31  54 SE14      30.15S
HALLOCK        SUNNY     52  28  40 SE20      30.12F
ROSEAU         SUNNY     48  30  49 SE13      30.16F
WARROAD        SUNNY     45  34  65 E10       30.17F
THIEF RVR FALL SUNNY     46  30  53 SE15      30.13F
CROOKSTON      SUNNY     50  32  50 SE14      30.11F
FOSSTON        SUNNY     48  30  49 E10G16    30.12F
DETROIT LAKES  SUNNY     52  30  43 SE10G18   30.10F
MOORHEAD       SUNNY     57  28  33 SE10      30.07F
PARK RAPIDS    SUNNY     51  30  44 E9        30.12F
MAHNOMEN       FAIR      51  31  46 SE10      30.10S
$$
MNZ006-009>011-018-025>026-181600-
   North Central Minnesota

CITY           SKY/WX    TMP DP  RH WIND       PRES   REMARKS
BAUDETTE       SUNNY     47  31  53 E17       30.18F
FLAG ISLAND    SUNNY     41  32  70 SE6       30.19S
INTL FALLS     SUNNY     45  29  53 E14G22    30.21F
WASKISH        SUNNY     48  30  49 E12G20    30.17S
BIG FORK       SUNNY     48  28  46 E14       30.18F
LONGVILLE      SUNNY     48  30  49 SE5       30.15S
GRAND RAPIDS   SUNNY     45  28  53 E13G18    30.18S
ORR            SUNNY     48  25  40 SE3       30.18F
COOK           SUNNY     46  28  49 SE8       30.21S
WALKER         FAIR      47  32  56 E9        30.15S
$$
MNZ012-019>021-037-181600-
   Northeast Minnesota

CITY           SKY/WX    TMP DP  RH WIND       PRES   REMARKS
DULUTH         SUNNY     43  32  65 E18G32    30.20F
ELY            SUNNY     45  25  45 E7        30.22S
HIBBING        SUNNY     48  28  46 SE16      30.19F
EVELETH        SUNNY     45  30  57 SE9G20    30.21F
DULUTH HARBOR  SUNNY     39  36  87 NE21      30.24S
TWO HARBORS    SUNNY     46  36  66 E18G26    30.23S
SILVER BAY     MOSUNNY   45  34  65 NE14      30.25R
GRAND MARAIS     N/A     40  33  76 S3        30.29R
G MARAIS ARPRT SUNNY     43  28  56 SE9       30.24R
$$
MNZ029>031-032-039>041-046>048-054>057-064-181600-
   West Central Minnesota

CITY           SKY/WX    TMP DP  RH WIND       PRES   REMARKS
FERGUS FALLS   SUNNY     55  23  28 SE12      30.08S
WHEATON        SUNNY     57  30  35 E15       30.06F
MORRIS         SUNNY     61  30  31 E17       30.03F
ALEXANDRIA     MOSUNNY   55  29  36 E17       30.09S
ELBOW LAKE     FAIR      56  31  38 SE15G21   30.05F
WADENA         SUNNY     50  30  46 E10G17    30.10S
GLENWOOD       SUNNY     57  30  35 E17       30.08S
APPLETON       SUNNY     63  28  27 SE16      30.03F
BENSON         SUNNY     61  25  25 SE10G17   30.04F
ORTONVILLE     SUNNY     55  28  35 SE12      30.04F
MADISON        MOSUNNY   61  28  29 SE12      30.03F
WILLMAR        FAIR      61  32  33 E15G21    30.06F
$$
MNZ033>034-036-042>043-049>051-058-059-181600-
   Central Minnesota

CITY           SKY/WX    TMP DP  RH WIND       PRES   REMARKS
ST CLOUD       SUNNY     55  32  41 E13       30.09F
SAUK CENTRE    FAIR      54  32  43 E17       30.09F
PAYNESVILLE    SUNNY     55  30  39 NE14      30.08S
AITKIN         SUNNY     52  32  46 E9        30.14S
PINE RIVER     SUNNY     46  34  61 E12G20    30.17S
BRAINERD       SUNNY     49  31  49 VRB7      30.14S
STAPLES        MOSUNNY   48  28  46 E7        30.11F
LONG PRAIRIE   FAIR      52  32  46 E12G20    30.10S
LITTLE FALLS   SUNNY     52  30  43 E9        30.11S
LITCHFIELD     SUNNY     57  32  38 E14       30.07S
BUFFALO        SUNNY     57  30  36 E16       30.09S
MAPLE LAKE     SUNNY     58  35  42 E12G17    30.09F
$$
MNZ037-044-045-052-053-181600-
   East Central Minnesota

CITY           SKY/WX    TMP DP  RH WIND       PRES   REMARKS
PRINCETON      SUNNY     55  34  44 NE12      30.11F
MORA           SUNNY     50  32  50 E9        30.15S
CAMBRIDGE      SUNNY     55  37  50 E8        30.10F
RUSH CITY      SUNNY     54  33  45 E7        30.13F
MOOSE LAKE     SUNNY     46  32  57 E8        30.16S
HINCKLEY       FAIR      52  32  46 E10       30.14F
CLOQUET        SUNNY     45  30  57 E18G25    30.18F
MCGREGOR       SUNNY     48  32  53 E14       30.17S
$$
MNZ071>073-080-081-089-090-097-098-181600-
   Southwest Minnesota

CITY           SKY/WX    TMP DP  RH WIND       PRES   REMARKS
MONTEVIDEO     SUNNY     63  30  29 SE17      30.04F
GRANITE FALLS  SUNNY     60  30  32 E9        30.04F
CANBY          MOSUNNY   58  28  32 E8        30.03F
MARSHALL       MOSUNNY   61  28  29 SE14      30.01F
REDWOOD FALLS  MOSUNNY   60  31  33 E10G17    30.02F
OLIVIA         SUNNY     59  30  33 E14       30.03S
PIPESTONE      CLOUDY    61  23  23 E16       29.98F
WINDOM         PTSUNNY   64  28  25 E13       30.01F
WORTHINGTON    CLOUDY    64  32  29 E17G23    30.00F
JACKSON        CLOUDY    64  28  25 E17       30.01F
TRACY          PTSUNNY   59  30  32 E9        30.02F
SLAYTON        PTSUNNY   64  27  25 E14       30.01F
$$
MNZ065>067-074>077-082>085-091>093-181600-
   South Central Minnesota

CITY           SKY/WX    TMP DP  RH WIND       PRES   REMARKS
MANKATO        MOSUNNY   63  34  34 N6        30.04S
NEW ULM        MOSUNNY   59  30  33 E13       30.02F
ST JAMES       MOSUNNY   64  28  25 E10       30.03R
FAIRMONT       MOSUNNY   64  27  24 E10       30.01S
GLENCOE        MOSUNNY   60  34  37 E16       30.05F
FARIBAULT      PTSUNNY   61  32  33 E15       30.06S
OWATONNA       PTSUNNY   63  32  31 E15       30.04F
ALBERT LEA     PTSUNNY   63  34  34 E14       30.02F
$$
MNZ078>079-086>088-094>096-181600-
   Southeast Minnesota

CITY           SKY/WX    TMP DP  RH WIND       PRES   REMARKS
ROCHESTER      PTSUNNY   60  36  40 E15       30.07F
RED WING       MOSUNNY   59  28  31 E13       30.07F
STANTON        PTSUNNY   62  31  31 E16G22    30.05F
DODGE CENTER   PTSUNNY   63  34  34 E15       30.05F
WINONA         PTSUNNY   59  34  38 SE12      30.09S
AUSTIN         PTSUNNY   63  37  39 E14       30.03F
PRESTON        PTSUNNY   60  33  37 E12       30.07S
$$
ABBREVIATIONS USED IN REMARKS
   TC - TEMPERATURES IN CELSIUS
  WCI - WIND CHILL INDEX
   HX - HEAT INDEX
  VSB - VISIBILITY
$$


USA.gov is the U.S. government's official web portal to all federal, state and local government web resources and services.